Regional Weather Roundup
Issued by NWS Raleigh/Durham, NC

Home | Current Version | Previous Version | Text Only | Print | Product List | Glossary On
Versions: 1 2 3 4 5 6 7 8 9 10 11 12 13 14 15 16 17 18 19 20 21 22 23 24 25 26 27 28 29 30 31 32 33 34 35 36 37 38 39 40 41 42 43 44 45 46 47 48 49 50
000
ASUS42 KRAH 072110
RWRRAH
NORTH CAROLINA WEATHER ROUNDUP
NATIONAL WEATHER SERVICE RALEIGH NC
400 PM EST WED DEC 07 2016

NOTE: "FAIR" INDICATES FEW OR NO CLOUDS BELOW 12,000 FEET WITH NO
SIGNIFICANT WEATHER AND/OR OBSTRUCTIONS TO VISIBILITY.

NCZ001-053-055-056-065-067-072200-
WESTERN NORTH CAROLINA

CITY           SKY/WX    TMP DP  RH WIND       PRES   REMARKS
ASHEVILLE      SUNNY     55  40  56 S10       30.00R
JEFFERSON      MOSUNNY   49  35  59 CALM      30.00R
HICKORY        CLOUDY    54  41  61 VRB3      30.01R
RUTHERFORDTON  CLOUDY    57  42  57 SE6       30.02R
MOUNT AIRY     NOT AVBL
BOONE          SUNNY     49  35  59 SE5       30.00R
$$

NCZ021-022-025-041-071-084-088-072200-
CENTRAL NORTH CAROLINA

CITY           SKY/WX    TMP DP  RH WIND       PRES   REMARKS
CHARLOTTE      MOSUNNY   56  43  61 SW6       30.03R
GREENSBORO     PTSUNNY   57  32  38 CALM      30.01R
WINSTON-SALEM  SUNNY     57  29  34 CALM      30.02S
RALEIGH-DURHAM PTCLDY    60  40  47 SW5       30.03R
FORT BRAGG     SUNNY     60  42  51 CALM      30.01S
FAYETTEVILLE   SUNNY     59  44  57 SE5       30.02S
BURLINGTON     CLEAR     58  36  43 CALM      30.02R
LAURINBURG     MOSUNNY   60  44  55 S5        30.03S
$$

NCZ011-015-027-028-043-044-047-080-103-072200-
NORTHEASTERN NORTH CAROLINA

CITY           SKY/WX    TMP DP  RH WIND       PRES   REMARKS
ROCKY MT-WILSO CLEAR     58  44  60 E3        30.04R
GREENVILLE     CLEAR     57  43  58 CALM      30.06R
WASHINGTON     CLEAR     57  41  54 N3        30.04R
ELIZABETH CITY CLEAR     54  42  64 N7        30.04R
MANTEO         MOCLDY    52  44  72 NE9       30.05R
CAPE HATTERAS  NOT AVBL
$$

NCZ078-087-090-091-093-098-101-072200-
SOUTHEASTERN NORTH CAROLINA

CITY           SKY/WX    TMP DP  RH WIND       PRES   REMARKS
LUMBERTON      PTSUNNY   60  45  57 CALM      30.02S
GOLDSBORO      CLEAR     60  44  54 SE3       30.02R
KINSTON        CLEAR     59  43  55 CALM      30.04S
KENANSVILLE    NOT AVBL
NEW BERN       CLEAR     58  44  60 CALM      30.04S
CHERRY POINT   CLEAR     59  44  57 N5        30.04S
BEAUFORT       CLEAR     58  46  64 NE7       30.04R
JACKSONVILLE   PTCLDY    60  45  57 NE3       30.03R
WILMINGTON     CLEAR     61  46  57 SW3       30.03R
$$




USA.gov is the U.S. government's official web portal to all federal, state and local government web resources and services.